Regional Weather Roundup
Issued by NWS

Home | Current Version | Previous Version | Graphics & Text | Print | Product List | Glossary On
Versions: 1 2 3 4 5 6 7 8 9 10 11 12 13 14 15 16 17 18 19 20 21 22 23 24 25 26 27 28 29 30 31 32 33 34 35 36 37 38 39 40 41 42 43 44 45 46 47 48 49 50
000
ASUS43 KLMK 290410
RWRKY
KENTUCKY REGIONAL WEATHER ROUNDUP
NATIONAL WEATHER SERVICE LOUISVILLE KY
1200 AM EDT WED JUL 29 2015

NOTE "FAIR" INDICATES FEW OR NO CLOUDS BELOW 12,000 FEET
WITH NO SIGNIFICANT WEATHER AND/OR OBSTRUCTIONS TO VISIBILITY.

KYZ001>023-026-027-061>063-070>075-290500-
WESTERN AND SOUTH CENTRAL KENTUCKY

CITY           SKY/WX    TMP DP  RH WIND       PRES   REMARKS
PADUCAH        CLOUDY    77  74  90 CALM      29.98S
HENDERSON      CLOUDY    75  72  88 CALM      29.97S
OWENSBORO      NOT AVBL
HOPKINSVILLE   CLOUDY    74  73  95 SW7       29.99F
BOWLING GREEN  PTCLDY    77  72  84 SW3       30.02F
GLASGOW        CLOUDY   N/A N/A N/A CALM      30.02S
$$

KYZ024-025-028>034-038-045-046-053-290500-
NORTH CENTRAL KENTUCKY

CITY           SKY/WX    TMP DP  RH WIND       PRES   REMARKS
LOUISVILLE/SDF MOCLDY    81  73  76 W5        29.99R
LOUISVILLE/LOU PTCLDY    81  72  74 SW6       30.00R
FORT KNOX      CLEAR     75  72  91 CALM      30.00R
$$

KYZ035>037-039>044-047>052-055>060-089>105-290500-
NORTHEAST KENTUCKY

CITY           SKY/WX    TMP DP  RH WIND       PRES   REMARKS
LEXINGTON      CLEAR     75  72  90 CALM      30.02R
COVINGTON      PTCLDY    77  73  87 CALM      30.01S
FRANKFORT      PTCLDY    75  73  93 CALM      30.01R
$$

KYZ054-064>069-076>088-106>120-290500-
SOUTHEAST KENTUCKY

CITY           SKY/WX    TMP DP  RH WIND       PRES   REMARKS
JACKSON        CLEAR     75  73  93 W3        30.04R FOG
LONDON         MOCLDY    75  69  81 SW3       30.03R
SOMERSET       CLEAR     72  72 100 CALM      30.05R
MIDDLESBORO    MOCLDY    74  73  98 CALM      30.03F
MONTICELLO     CLOUDY    74  74 100 CALM      30.06R
$$



USA.gov is the U.S. government's official web portal to all federal, state and local government web resources and services.